Regional Weather Roundup
Issued by NWS

Home | Current Version | Previous Version | Text Only | Print | Product List | Glossary Off
Versions: 1 2 3 4 5 6 7 8 9 10 11 12 13 14 15 16 17 18 19 20 21 22 23 24 25 26 27 28 29 30 31 32 33 34 35 36 37 38 39 40 41 42 43 44 45 46 47 48 49 50

000
ASUS43 KMPX 161910
RWRMN
WEATHER ROUNDUP FOR MINNESOTA
NATIONAL WEATHER SERVICE TWIN CITIES/CHANHASSEN MN
100 PM CST TUE JAN 16 2018


NOTE: "FAIR" INDICATES FEW OR NO CLOUDS BELOW 12,000 FEET WITH NO
SIGNIFICANT WEATHER AND/OR OBSTRUCTIONS TO VISIBILITY. N/A MEANS
CURRENT SKY AND/OR WEATHER CONDITIONS ARE NOT AVAILABLE.

MNZ060>063-068>070-162000-
   Twin Cities Metro

CITY           SKY/WX    TMP DP  RH WIND       PRES   REMARKS
TWIN CITIES    FAIR       7  -2  66 W8        30.65F WCI  -6
ST PAUL        FAIR       7  -2  66 W5        30.67F WCI  -2
CRYSTAL        FAIR       4  -6  63 W8        30.64F WCI  -9
BLAINE         SUNNY      7  -2  66 W7        30.63F WCI  -5
LAKEVILLE      PTSUNNY    3  -2  78 W8        30.64F WCI -10
EDEN PRAIRIE   FAIR       4  -5  66 W8        30.64F WCI  -9
SOUTH ST PAUL  FAIR       8  -2  63 NW7       30.65F WCI  -4
LAKE ELMO      FAIR       9   0  66 W5        30.64F WCI   0
$$
MNZ001>005-007-008-013>017-022>024-027-028-162000-
   Northwest Minnesota

CITY           SKY/WX    TMP DP  RH WIND       PRES   REMARKS
BEMIDJI        FAIR       3  -8  59 W6        30.57F WCI  -8
HALLOCK        FAIR       0  -8  71 S17       30.55F WCI -21
ROSEAU         FAIR       0  -9  65 SW14      30.53F WCI -19
WARROAD        FAIR       0  -9  65 SW13G18   30.53F WCI -18
THIEF RVR FALL CLOUDY    -5 -13  68 S13       30.60F WCI -24
CROOKSTON      FAIR      -4 -11  71 S15       30.64F WCI -25
FOSSTON        FAIR      -4 -15  59 S10       30.60F WCI -21
DETROIT LAKES  FAIR       0  -9  65 W3        30.61F
MOORHEAD       FAIR      -6 -15  65 CALM      30.68F
PARK RAPIDS    FAIR       2  -4  76 W3        30.56F
MAHNOMEN       FAIR      -8 -15  71 SW9       30.63S WCI -25
$$
MNZ006-009>011-018-025>026-162000-
   North Central Minnesota

CITY           SKY/WX    TMP DP  RH WIND       PRES   REMARKS
BAUDETTE       FAIR       2  -9  60 S8        30.51F WCI -12
FLAG ISLAND    FAIR       0  -9  65 SW9       30.50F WCI -16
INTL FALLS     PTSUNNY    0  -8  69 SW8       30.54F WCI -14
WASKISH        CLOUDY    -2 -11  65 SW9       30.56F WCI -18
BIG FORK       FAIR       5   0  78 CALM      30.54F
LONGVILLE      FAIR       3  -6  66 CALM      30.58F
GRAND RAPIDS   FAIR       6   0  76 NW6       30.57F WCI  -4
CRANE LAKE     FAIR       3  -2  78 CALM      30.56F
ORR            FAIR       1  -2  85 NW3       30.50F
COOK           FAIR       3   0  85 W5        30.53F WCI  -6
WALKER         FAIR       3  -6  66 CALM      30.57F
$$
MNZ012-019>021-037-162000-
   Northeast Minnesota

CITY           SKY/WX    TMP DP  RH WIND       PRES   REMARKS
DULUTH         FAIR       7   0  73 W8        30.51F WCI  -6
ELY            FAIR       3   0  85 W7        30.50F WCI  -9
HIBBING        FAIR       2  -4  76 NW6       30.53F WCI  -9
EVELETH        FAIR       3  -5  69 CALM      30.53F
DULUTH HARBOR  FAIR      10   1  67 SW8       30.59F WCI  -1
TWO HARBORS    FAIR      19   7  58 W8        30.50F WCI   9
SILVER BAY     FAIR      18   7  62 CALM      30.48F
GRAND MARAIS     N/A     21   7  54 VRB3      30.51F
G MARAIS ARPRT FAIR      10   1  67 W3        30.41F
$$
MNZ029>031-032-039>041-046>048-054>057-064-162000-
   West Central Minnesota

CITY           SKY/WX    TMP DP  RH WIND       PRES   REMARKS
FERGUS FALLS   FAIR      -6 -11  77 W3        30.71F
WHEATON        SUNNY      1 -11  55 W3        30.71F
MORRIS         SUNNY      0  -8  71 NW8       30.67F WCI -15
ALEXANDRIA     FAIR       1  -8  66 W6        30.62F WCI -10
ELBOW LAKE     FAIR      -4 -10  75 NW7       30.68S HAZE    WCI -18
WADENA         FAIR       0  -9  65 W7        30.60F WCI -13
GLENWOOD       FAIR       1  -6  71 W7        30.63F WCI -11
APPLETON       SUNNY      1  -8  66 W8        30.69F WCI -12
BENSON         SUNNY      0  -9  65 N8        30.69F WCI -15
ORTONVILLE     SUNNY      1  -9  60 W6        30.68F WCI -10
MADISON          N/A      1  -6  71 NW6       30.70F WCI -10
WILLMAR        FAIR       0  -8  71 W8        30.68F WCI -15
$$
MNZ033>034-036-042>043-049>051-058-059-162000-
   Central Minnesota

CITY           SKY/WX    TMP DP  RH WIND       PRES   REMARKS
ST CLOUD       FAIR       1  -7  68 NW8       30.64F WCI -13
SAUK CENTRE      N/A      1  -5  73 NW8       30.63F WCI -12
PAYNESVILLE    FAIR       3  -3  77 W6        30.64F WCI  -8
AITKIN         FAIR       3  -6  66 SW5       30.58F WCI  -6
PINE RIVER     FAIR       3  -6  66 SW3       30.60F
BRAINERD       FAIR       2  -6  69 VRB3      30.61F
STAPLES        FAIR       0 -11  60 W5        30.61F WCI -10
LONG PRAIRIE   FAIR       3  -6  66 S5        30.62F WCI  -6
LITTLE FALLS   FAIR       3 -11  51 W5        30.63F WCI  -6
LITCHFIELD     FAIR       1  -4  78 W6        30.65F WCI -10
BUFFALO        FAIR       2  -6  69 SW5       30.67F WCI  -8
MAPLE LAKE     FAIR       3  -5  68 MISG      30.66F
HUTCHINSON     FAIR       2  -5  73 W9        30.66F WCI -13
$$
MNZ037-044-045-052-053-162000-
   East Central Minnesota

CITY           SKY/WX    TMP DP  RH WIND       PRES   REMARKS
PRINCETON      FAIR       5  -6  61 W7        30.63F WCI  -7
MORA           FAIR       7  -2  66 W6        30.62F WCI  -3
CAMBRIDGE      FAIR       5  -6  61 W7        30.63F WCI  -7
RUSH CITY      FAIR       6  -3  65 W5        30.62F WCI  -2
MOOSE LAKE     FAIR       9   0  66 NW6       30.57F WCI  -1
HINCKLEY       FAIR       9   0  66 W6        30.60F WCI  -1
CLOQUET        FAIR       7   0  72 NW6       30.53F WCI  -3
MCGREGOR       FAIR       9   0  66 NW5       30.58F WCI   0
$$
MNZ071>073-080-081-089-090-097-098-162000-
   Southwest Minnesota

CITY           SKY/WX    TMP DP  RH WIND       PRES   REMARKS
MONTEVIDEO     SUNNY      5  -6  61 NW7       30.69F WCI  -7
GRANITE FALLS  SUNNY      2  -5  72 NW10      30.71F WCI -14
CANBY          SUNNY      7  -1  69 W6        30.69F WCI  -3
MARSHALL       SUNNY      1  -6  72 NW10      30.69F WCI -15
REDWOOD FALLS  SUNNY     -1  -7  75 W9        30.69F WCI -16
OLIVIA         SUNNY      1  -6  71 NW12      30.68F WCI -15
PIPESTONE      SUNNY      0  -6  78 NW8       30.63F WCI -15
WINDOM         MOSUNNY    1 -13  51 W10       30.64F WCI -14
WORTHINGTON    SUNNY      4  -3  73 W10       30.64F WCI -11
JACKSON        SUNNY      1  -6  71 W12       30.64  WCI -15
SLAYTON        SUNNY      3  -2  77 W9        30.64F WCI -11
$$
MNZ065>067-074>077-082>085-091>093-162000-
   South Central Minnesota

CITY           SKY/WX    TMP DP  RH WIND       PRES   REMARKS
MANKATO        FLURRIES   1  -5  75 NW9       30.66F WCI -14
NEW ULM        SUNNY      0  -8  71 W12       30.67F WCI -18
ST JAMES       MOSUNNY    1  -6  71 W10       30.68F WCI -14
FAIRMONT       SUNNY      3  -4  72 NW12      30.67F HAZE    WCI -13
GLENCOE        FAIR       1  -6  71 W9        30.65F WCI -14
FARIBAULT      FAIR       5   0  78 W7        30.64F WCI  -7
OWATONNA       CLOUDY     3  -2  78 W10       30.62F WCI -12
WASECA         PTSUNNY    1  -4  78 W10       30.66F WCI -14
ALBERT LEA     CLOUDY     1  -2  85 NW6       30.61F WCI -10
$$
MNZ078>079-086>088-094>096-162000-
   Southeast Minnesota

CITY           SKY/WX    TMP DP  RH WIND       PRES   REMARKS
ROCHESTER      PTSUNNY    5   1  83 NW14      30.58F WCI -12
RED WING       FAIR       9  -2  61 W10       30.63F WCI  -6
STANTON        FAIR       6  -2  70 W7        30.63F WCI  -6
DODGE CENTER   PTSUNNY    1  -2  85 NW8       30.59F WCI -12
WINONA         CLOUDY    14   9  79 N9        30.61F WCI   2
AUSTIN         FAIR       1  -4  78 NW10      30.60F WCI -14
PRESTON        CLOUDY     7   2  78 NW9       30.58S WCI  -6
$$
ABBREVIATIONS USED IN REMARKS
   TC - TEMPERATURES IN CELSIUS
  WCI - WIND CHILL INDEX
   HX - HEAT INDEX
  VSB - VISIBILITY
$$




USA.gov is the U.S. government's official web portal to all federal, state and local government web resources and services.